Almeria, Spain

2:04 AM CET on February 20, 2017 (GMT +0100)
Almeria

Weather History for LEAM - September, 2013

Change the Weather History Date:

Saturday, September 14, 2013

  Actual Average Record
Temperature  
Mean Temperature 79 °F -  
Max Temperature 89 °F 75 °F 93 °F (2011)
Min Temperature 69 °F 63 °F 62 °F (2006)
Cooling Degree Days 14    
Growing Degree Days 29 (Base 50)    
Moisture  
Dew Point 61 °F    
Average Humidity 54    
Maximum Humidity 74    
Minimum Humidity 30    
Precipitation  
Precipitation 0.00 in 0.02 in - ()
Sea Level Pressure  
Sea Level Pressure 30.06 in    
Wind  
Wind Speed 8 mph ()    
Max Wind Speed 18 mph    
Max Gust Speed -    
Visibility 7.0 miles    
Events      
Averages and records for this station are not official NWS values.
T = Trace of Precipitation, MM = Missing Value Source: Averaged Metar Reports

Daily Weather History Graph

Daily Weather History Graph

Search for Another Location

Airport or City:

Trip Planner

Search our weather history database for the weather conditions in past years. The results will help you decide how hot, cold, wet, or windy it might be!

Date:

Astronomy

Sep. 14, 2013 Rise Set
Actual Time 7:50 AM CEST 8:18 PM CEST
Civil Twilight 7:24 AM CEST 8:44 PM CEST
Nautical Twilight 6:54 AM CEST 9:15 PM CEST
Astronomical Twilight 6:23 AM CEST 9:46 PM CEST
Moon 4:42 PM CEST (9/14) 2:13 AM CEST (9/14)
Length of Visible Light 13h 19m
Length of Day
12h 27m
Waxing Gibbous, 69% of the Moon is Illuminated
Sep 14
Waxing Gibbous
Sep 19
Full
Sep 27
Last Quarter
Oct 5
New
Oct 12
First Quarter

Hourly Weather History & Observations

Time (CEST) Temp. Heat Index Dew Point Humidity Pressure Visibility Wind Dir Wind Speed Gust Speed Precip Events Conditions
2:00 AM 76 °F - 64 °F 58% 30.14 in - ESE 4.6 mph - -  
5:00 AM 71.6 °F - 60.8 °F 69% 30.12 in - ENE 3.5 mph - N/A   Clear
5:30 AM 73.4 °F - 62.6 °F 69% 30.09 in - NE 10.4 mph - N/A   Clear
6:00 AM 71.6 °F - 62.6 °F 73% 30.09 in - Variable 2.3 mph - N/A   Clear
6:30 AM 71.6 °F - 62.6 °F 73% 30.09 in - ENE 3.5 mph - N/A   Clear
7:00 AM 71.6 °F - 60.8 °F 69% 30.09 in - North 3.5 mph - N/A   Clear
7:30 AM 71.6 °F - 60.8 °F 69% 30.09 in 6.2 mi Calm Calm - N/A   Scattered Clouds
8:00 AM 71 °F - 61 °F 63% 30.11 in 19 mi ESE 3.5 mph - -   Scattered Clouds
8:00 AM 69.8 °F - 60.8 °F 73% 30.09 in 6.2 mi ESE 3.5 mph - N/A   Scattered Clouds
8:30 AM 71.6 °F - 60.8 °F 69% 30.09 in 6.2 mi NE 4.6 mph - N/A   Scattered Clouds
9:00 AM 73.4 °F - 60.8 °F 65% 30.06 in 6.2 mi NNE 5.8 mph - N/A   Scattered Clouds
9:30 AM 77.0 °F - 60.8 °F 57% 30.06 in 6.2 mi NNE 4.6 mph - N/A   Scattered Clouds
10:00 AM 78.8 °F - 59.0 °F 51% 30.09 in 6.2 mi ENE 11.5 mph - N/A   Scattered Clouds
10:30 AM 80.6 °F 80.8 °F 57.2 °F 45% 30.09 in 6.2 mi East 18.4 mph - N/A   Scattered Clouds
11:00 AM 80.6 °F 81.1 °F 59.0 °F 48% 30.12 in 6.2 mi ENE 16.1 mph - N/A   Scattered Clouds
11:30 AM 80.6 °F 81.1 °F 59.0 °F 48% 30.09 in 6.2 mi ENE 13.8 mph - N/A   Scattered Clouds
12:00 PM 82.4 °F 82.9 °F 60.8 °F 48% 30.09 in 6.2 mi East 12.7 mph - N/A   Scattered Clouds
12:30 PM 84.2 °F 83.8 °F 59.0 °F 42% 30.09 in 6.2 mi East 15.0 mph - N/A   Scattered Clouds
1:00 PM 84.2 °F 83.8 °F 59.0 °F 42% 30.09 in 6.2 mi East 16.1 mph - N/A   Scattered Clouds
1:30 PM 86.0 °F 85.4 °F 59.0 °F 40% 30.06 in 6.2 mi ENE 16.1 mph - N/A   Scattered Clouds
2:00 PM 87 °F - 60 °F 30% 30.06 in 25 mi ENE 18.4 mph - -   Scattered Clouds
2:00 PM 86.0 °F 85.4 °F 59.0 °F 40% 30.04 in 6.2 mi ENE 17.3 mph - N/A   Scattered Clouds
2:30 PM 87.8 °F 86.5 °F 57.2 °F 35% 30.04 in 6.2 mi East 18.4 mph - N/A   Scattered Clouds
3:00 PM 86.0 °F 84.9 °F 57.2 °F 37% 30.04 in 6.2 mi East 18.4 mph - N/A   Scattered Clouds
3:30 PM 87.8 °F 86.1 °F 55.4 °F 33% 30.01 in 6.2 mi East 18.4 mph - N/A   Scattered Clouds
4:00 PM 86.0 °F 85.4 °F 59.0 °F 40% 30.01 in 6.2 mi East 13.8 mph - N/A   Scattered Clouds
4:30 PM 86.0 °F 84.9 °F 57.2 °F 37% 30.01 in 6.2 mi East 13.8 mph - N/A   Partly Cloudy
5:00 PM 86.0 °F 85.4 °F 59.0 °F 40% 30.01 in 6.2 mi ESE 15.0 mph - N/A   Partly Cloudy
5:30 PM 84.2 °F 84.4 °F 60.8 °F 45% 30.01 in 6.2 mi ESE 12.7 mph - N/A   Partly Cloudy
6:00 PM 82.4 °F 83.4 °F 62.6 °F 51% 30.01 in 6.2 mi ESE 12.7 mph - N/A   Partly Cloudy
6:30 PM 82.4 °F 82.9 °F 60.8 °F 48% 30.01 in 6.2 mi East 11.5 mph - N/A   Partly Cloudy
7:00 PM 80.6 °F 81.8 °F 62.6 °F 54% 30.01 in 6.2 mi East 13.8 mph - N/A   Partly Cloudy
7:30 PM 80.6 °F 81.8 °F 62.6 °F 54% 30.04 in 6.2 mi East 9.2 mph - N/A   Partly Cloudy
8:00 PM 80 °F - 65 °F 51% 30.03 in 19 mi ESE 6.9 mph - -   Scattered Clouds
8:00 PM 78.8 °F - 64.4 °F 61% 30.01 in 6.2 mi ESE 5.8 mph - N/A   Scattered Clouds
8:30 PM 78.8 °F - 64.4 °F 61% 30.01 in 6.2 mi ESE 6.9 mph - N/A   Scattered Clouds
9:00 PM 77.0 °F - 66.2 °F 69% 30.01 in 6.2 mi Variable 2.3 mph - N/A   Scattered Clouds
9:30 PM 77.0 °F - 68.0 °F 74% 30.04 in 6.2 mi Variable 2.3 mph - N/A   Scattered Clouds
10:00 PM 77.0 °F - 68.0 °F 74% 30.04 in 6.2 mi East 3.5 mph - N/A   Scattered Clouds
10:30 PM 75.2 °F - 66.2 °F 73% 30.04 in 6.2 mi Variable 2.3 mph - N/A   Scattered Clouds